Location: Wien
(48.2082°N, 16.3738°E)
Time: 08:03:32
(UTC+01:00)

ISS - Visible Passes

Search period start: 01 December 2023 00:00
Search period end: 11 December 2023 00:00
Orbit: 416 x 417 km, 51.6° (Epoch: 01 December)

Date Brightness Start Highest point End Pass type
(mag) Time Alt. Az. Time Alt. Az. Time Alt. Az.
01 Dec -3.5 16:41:33 10° WNW 16:44:51 52° N 16:48:09 10° E visible
01 Dec -3.0 18:18:21 10° WNW 18:21:29 50° SW 18:21:29 50° SW visible
02 Dec -3.6 17:29:48 10° WNW 17:33:09 75° SSW 17:35:20 20° ESE visible
02 Dec -0.5 19:07:24 10° W 19:08:16 13° WSW 19:08:16 13° WSW visible
03 Dec -3.8 16:41:11 10° WNW 16:44:32 80° NNE 16:47:53 10° ESE visible
03 Dec -1.6 18:18:16 10° W 18:21:00 23° SW 18:22:14 19° S visible
04 Dec -2.2 17:29:18 10° WNW 17:32:24 35° SW 17:35:29 10° SSE visible
05 Dec -2.9 16:40:21 10° WNW 16:43:38 54° SSW 16:46:54 10° SE visible
05 Dec -0.4 18:19:10 10° WSW 18:19:43 10° SW 18:20:17 10° SW visible
06 Dec -0.7 17:28:48 10° W 17:31:00 17° SW 17:33:12 10° S visible
07 Dec -1.2 16:39:18 10° W 16:42:07 25° SW 16:44:56 10° SSE visible
09 Dec -0.1 16:38:45 10° WSW 16:39:59 12° SW 16:41:12 10° SSW visible
